Location: Bats
(43.6587°N, 0.4584°W)
Time: 19:53:58
(UTC+00:00)

BREEZE-M DEB (TANK) - Pass Details

Date: 12 January 2026
Orbit: 608 x 17104 km, 49.5° (Epoch: 12 February)

Event Time Altitude Azimuth Distance (km) Brightness Sun altitude
Rises 18:43:17 0° 280° (W) 3,985 8.4 -20.5°
Reaches altitude 10° 18:46:36 10° 289° (WNW) 2,393 6.9 -21.1°
Maximum altitude 18:50:46 39° 0° (N) 933 3.8 -21.8°
Enters shadow 18:51:04 38° 12° (NNE) 939 3.7 -21.9°
